PDT,Max TemperatureF,Mean TemperatureF,Min TemperatureF,Max Dew PointF,MeanDew PointF,Min DewpointF,Max Humidity, Mean Humidity, Min Humidity, Max Sea Level PressureIn, Mean Sea Level PressureIn, Min Sea Level PressureIn, Max VisibilityMiles, Mean VisibilityMiles, Min VisibilityMiles, Max Wind SpeedMPH, Mean Wind SpeedMPH, Max Gust SpeedMPH,PrecipitationIn, CloudCover, Events, WindDirDegrees
2013-10-1,77,60,42,38,32,21,76,45,13,29.97,29.92,29.84,10,10,10,25,6,31,0.00,3,,320
2013-10-2,73,58,43,33,26,16,62,37,12,29.97,29.92,29.82,10,10,10,23,7,32,0.00,2,,285
2013-10-3,58,49,39,25,20,15,54,37,19,30.24,30.10,29.95,10,10,10,16,7,22,0.00,2,,35
2013-10-4,60,47,34,24,20,15,56,39,21,30.38,30.33,30.24,10,10,10,17,6,23,0.00,0,,121
2013-10-5,70,52,34,22,19,14,56,34,11,30.44,30.35,30.26,10,10,10,14,4,18,0.00,0,,107
2013-10-6,79,56,33,25,20,15,61,35,9,30.29,30.17,30.04,10,10,10,13,1,23,0.00,3,,292
2013-10-7,77,61,44,25,20,14,45,28,10,30.06,29.95,29.85,10,10,10,22,4,28,0.00,6,,281
2013-10-8,65,53,40,28,24,18,49,35,21,29.97,29.83,29.65,10,10,10,16,5,18,0.00,3,,24
2013-10-9,53,48,43,36,31,22,60,46,32,29.79,29.68,29.57,10,10,6,20,9,23,0.01,7,Rain,4
2013-10-10,68,53,37,34,30,24,76,48,20,29.96,29.86,29.78,10,10,10,20,5,25,0.00,3,,323
2013-10-11,67,52,37,34,30,25,76,49,22,30.08,29.99,29.92,10,10,10,16,4,21,0.00,2,,310
2013-10-12,69,53,36,34,29,17,70,43,16,29.99,29.90,29.79,10,10,10,23,7,30,0.00,3,,276
2013-10-13,55,47,39,37,33,29,70,56,41,30.20,30.05,29.90,10,10,10,14,6,18,T,5,Rain,11
2013-10-14,61,46,31,32,27,21,78,53,27,30.30,30.21,30.14,10,10,10,13,2,17,0.00,0,,3
2013-10-15,60,46,32,27,23,18,69,45,20,30.25,30.21,30.17,10,10,10,14,4,18,0.00,0,,114
2013-10-16,68,49,30,30,22,17,63,41,18,30.24,30.16,30.08,10,10,10,13,2,15,0.00,3,,349
2013-10-17,70,52,34,28,24,18,70,42,14,30.18,30.12,30.05,10,10,10,12,2,15,0.00,0,,22
2013-10-18,71,52,33,25,23,20,64,40,16,30.25,30.16,30.08,10,10,10,10,2,15,0.00,0,,22
2013-10-19,75,54,33,26,23,19,64,39,13,30.25,30.15,30.07,10,10,10,9,1,12,0.00,0,,357
2013-10-20,76,56,35,27,22,16,64,37,10,30.16,30.08,29.99,10,10,10,9,2,12,0.00,0,,342
2013-10-21,75,55,35,25,23,20,59,36,13,30.18,30.09,30.01,10,10,10,14,2,18,0.00,1,,98
2013-10-22,76,56,35,26,24,21,59,36,13,30.18,30.09,30.01,10,10,10,10,1,14,0.00,1,,174
2013-10-23,75,56,36,26,23,20,59,36,13,30.11,30.02,29.94,10,10,10,12,2,15,0.00,0,,154
2013-10-24,75,56,36,25,21,16,59,36,12,30.13,30.05,29.97,10,10,10,9,1,13,0.00,0,,105
2013-10-25,74,55,35,23,17,10,54,32,9,30.25,30.18,30.12,10,10,10,9,1,12,0.00,1,,314
2013-10-26,75,55,34,21,19,16,52,32,12,30.30,30.19,30.11,10,10,10,12,1,15,0.00,1,,123
2013-10-27,73,54,35,33,23,17,59,36,12,30.09,29.73,29.47,10,9,2,30,9,41,T,3,Rain-Thunderstorm,42
2013-10-28,47,42,36,34,31,25,92,69,45,29.75,29.58,29.45,10,10,10,20,8,25,0.03,8,Rain,312
2013-10-29,39,38,36,34,33,31,89,80,70,30.09,29.94,29.77,10,10,10,17,5,20,0.02,7,Rain,50
2013-10-30,53,42,31,33,30,25,82,62,41,30.23,30.13,30.07,10,10,10,10,3,17,0.00,3,,337
2013-10-31,62,46,29,35,30,21,85,54,22,30.31,30.25,30.18,10,10,10,7,1,12,0.00,0,,333